COSMOS 2251 DEB, 33825

Orbit data source: Space-Track

COSMOS 2251 DEB, 33825 is space debris in LEO originally from a launch on Wed, 16 Jun 1993 UTC launched from the Plesetsk Missile And Space Complex (PKMTR). The debris from Iridium 33, an American commercial communications satellite, has been tracked extensively since its accidental collision with the defunct Russian satellite Cosmos 2251 in 2009. This event, occurring at high speed in low Earth orbit (LEO), generated thousands of pieces of space debris, significantly increasing the risk of further collisions. The Iridium 33 debris cloud has impacted space traffic management and orbital debris mitigation strategies, making it a subject of ongoing study in space situational awareness.

Loading next visibility...
Identifier
33825, 1993-036BS
Orbit
LEO
Country
Flag of CISCIS
Related business
Manufacturer
Unknown
Mission
Spacecraft
Bus & Motor
Unknown
Mass
Unknown
Launch date (UTC)
1993-06-16 (33 years ago)
Launch vehicle
Unknown
Launch site
Plesetsk Missile And Space Complex (PKMTR)
Object type
Payload
Rocket body
Debris
Shape & HBR
Unknown shape, 0.2 m
Radar Cross Section
Small (<0.1 m²)

Expand to show TLE details & history
Last TLE update: 9 hours ago

TLE from 9 hours ago
0 COSMOS 2251 DEB
1 33825U 93036BS  26061.92144754  .00013646  00000-0  21000-2 0  9998
2 33825  73.9810 231.6800 0080579 180.6647 295.3102 14.71314314900585
Epoch: 2026-03-02T22:06Z
TLE epoch observation values (Epoch: 2026-03-02T22:06:53.067Z)
Latitude
60.5827°
Longitude
-111.17399°
Altitude
642.986 km
Speed
7.555 km/s
True Right ascension
01h 25m 01s
True Declination
60° 25' 58"
Sunlit
Object was in daylight at epoch
Visualization orbit readout
Latitude
Unknown
Longitude
Unknown
Altitude
Unknown
Speed
Unknown
Apparent Right ascension
Unknown
Apparent Declination
Unknown
Sunlit
N/A
Visualization observer readout
Local Sidereal Time
11:03:21
Azimuth
Unknown
Elevation
Unknown
Doppler factor
Unknown
Orbital elements
Apogee altitude
711.133 km
Perigee altitude
597.797 km
Semi-major axis
7,032.602 km
Eccentricity
0.00806
Inclination
73.981°
RAAN
231.68°
Arg. of periapsis
180.6647°
True anomaly
294.47189°
Mean anomaly
295.3102°
Eccentric anomaly
294.8914°
Mean motion
3.68018 °/min
Orbital period
97.82 mins
BSTAR
0.0021
Loading maneuver chart data...
Computing Atmospheric mass density...

Documentation

Showing up to 5 results
|